Skip Page Navigation
NASA JPL Caltech
NASA Logo - Jet Propulsion Laboratory + View the NASA Portal
+ Center for Near-Earth Object Studies
JPL Home Earth Solar System Stars & Galaxies Technology
JPL Solar System Dynamics
BODIES ORBITS EPHEMERIDES TOOLS PHYSICAL DATA DISCOVERY FAQ SITE MAP
IMPORTANT: The SSD Announcement email list is now available. Major changes are coming in the near future, including possible hostname and/or URL changes. To be notified of such changes, subscribe to this email list.

Please visit this page for more details.


JPL Small-Body Database Browser
Search: [ help ]  
39426 (3278 T-2)
Classification: Main-belt Asteroid          SPK-ID: 2039426
Ephemeris | Orbit Diagram | Orbital Elements | Mission Design | Physical Parameters | Discovery Circumstances | Close-Approach Data ]

[ show orbit diagram ]
Orbital Elements at Epoch 2458600.5 (2019-Apr-27.0) TDB
Reference: JPL 21 (heliocentric ecliptic J2000)
 Element Value Uncertainty (1-sigma)   Units 
e .2136492603486618 3.7647e-08  
a 2.42238274308738 8.6661e-09 au
q 1.904842461745399 9.1873e-08 au
i 3.039789425011193 4.3845e-06 deg
node 126.9671262777934 7.8269e-05 deg
peri 176.6997415336641 7.8834e-05 deg
M 69.52251188387942 9.6192e-06 deg
tp 2458334.558859434012
(2018-Aug-04.05885943)
3.6422e-05 TDB
period 1377.0907869909
3.77
7.3898e-06
2.023e-08
d
yr
n .2614206727696152 1.4028e-09 deg/d
Q 2.939923024429361 1.0518e-08 au
  Orbit Determination Parameters
   # obs. used (total)      1021  
   data-arc span      16487 days (45.14 yr)  
   first obs. used      1973-09-19  
   last obs. used      2018-11-09  
   planetary ephem.      DE431  
   SB-pert. ephem.      SB431-N16  
   condition code      0  
   norm. resid. RMS      .54394  
   source      ORB  
   producer      Otto Matic  
   solution date      2019-Jul-13 02:06:40  

Additional Information
 Earth MOID = .888824 au 
 Jupiter MOID = 2.30226 au 
 T_jup = 3.479 
[ show covariance matrix ]

Ephemeris | Orbit Diagram | Orbital Elements | Mission Design | Physical Parameters | Discovery Circumstances | Close-Approach Data ]

Physical Parameter Table
Parameter Symbol Value Units Sigma Reference Notes
absolute magnitude H 15.5   n/a MPO358989  
diameter diameter 1.672 km 0.321 urn:nasa:pds:neowise_diameters_albedos::2.0[mainbelt] (http://adsabs.harvard.edu/abs/2011ApJ...741...68M)  
geometric albedo albedo 0.437   0.160 urn:nasa:pds:neowise_diameters_albedos::2.0[mainbelt] (http://adsabs.harvard.edu/abs/2011ApJ...741...68M)  

39426 (3278 T-2)          Discovered 1973-Sep-30 by van Houten, C. J., van Houten-Groeneveld, I., Gehrels, T. at Palomar
Reference: 20020328/Numbers.arcLast Updated: 2004-04-19

[ show close-approach data ]
Alternate Designations
 3278 T-2 = 1999 LR27 = 2002 CY97 
Ephemeris | Orbit Diagram | Orbital Elements | Mission Design | Physical Parameters | Discovery Circumstances | Close-Approach Data ]
ABOUT SSD CREDITS/AWARDS PRIVACY/COPYRIGHT GLOSSARY LINKS
FirstGov 2020-Jan-19 16:46 UT
(server date/time)  
NASA Home Page
Site Manager:   Ryan S. Park
Webmaster  Alan B. Chamberlin